SCP
0 -0 0 0 0 -0 0 0 0 0 0 0 0 0 0 0 0 0 0 0 1 1 1 0 1 1 0 0 1 1 0 0 0 0 0 0 0 0 0 0 0 0 0
0 0 0 0 0 0 0 0 0 0 0 0 0 0 0 0 0 0 1 1 1 1 1 1 1 1 1 1 1 1 1 0 0 0 0 0 0 0 0 -0 0 0 1
0 0 0 -0 0 0 0 0 -0 -0 0 0 0 0 1 0 0 1 0 1 1 1 1 1 1 1 1 1 1 1 1 1 1 1 1 0 0 0 0 0 0 0 0
-0 0 0 0 0 0 0 0 0 0 0 0 0 0 0 0 0 0 1 0 0 1 1 0 0 0 0 1 0 0 1 1 1 1 1 1 1 0 0 0 0 0 0
0 0 0 0 0 0 0 0 0 0 0 0 0 0 0 0 0 0 0 0 0 0 0 0 0 0 0 0 0 0 0 0 0 0 0 1 1 1 0 0 0 0 0
0 0 -0 0 -0 0 -0 -0 -0 0 0 0 0 0 0 0 0 0 0 0 0 0 0 0 0 0 0 0 0 0 0 0 0 0 0 0 0 0 1 0 0 0 0
0 0 0 -0 0 -0 0 0 0 0 0 0 0 0 0 0 0 0 0 0 0 0 0 0 0 0 0 1 0 0 0 0 0 0 0 0 0 0 0 1 0 0 0
0 0 0 0 0 0 0 0 0 0 0 0 0 0 0 0 0 0 0 0 0 0 0 0 0 0 0 0 0 0 0 0 0 0 0 0 0 0 0 0 1 0 0
0 -0 -0 0 0 0 0 0 0 0 0 0 0 0 0 0 0 0 0 0 0 0 0 0 0 0 0 0 0 0 0 0 0 0 0 0 0 0 0 0 0 0 0
0 0 0 0 0 0 0 0 0 0 0 0 0 0 0 0 0 0 0 0 0 0 0 0 0 0 0 0 0 0 0 0 0 0 0 0 0 0 0 0 0 0 0
-0 0 0 0 0 0 0 1 0 0 0 0 0 0 0 0 0 0 0 0 0 0 0 0 0 0 0 0 0 0 0 0 0 0 0 0 0 0 0 0 0 0 0
-0 0 0 0 0 1 1 1 1 1 1 0 1 0 0 0 0 0 0 0 0 0 0 0 0 0 0 0 0 0 0 0 0 0 0 0 0 0 0 0 0 0 0
0 0 0 0 0 1 1 1 1 1 1 0 0 0 0 0 0 0 0 0 0 0 0 0 0 0 0 0 0 0 0 0 -0 0 0 0 0 0 0 0 0 0 0
0 0 0 0 0 0 0 1 1 1 1 0 1 0 0 0 0 0 0 0 0 0 0 0 0 0 0 0 0 -0 0 0 -0 0 0 0 0 0 0 0 0 0 0
0 0 0 0 0 0 0 0 0 1 1 1 0 0 0 0 0 0 0 0 0 0 0 0 0 0 0 0 0 0 0 -0 -0 0 0 0 0 0 0 0 0 0 0
0 0 0 0 0 0 0 0 0 0 1 1 1 0 0 0 0 0 0 0 0 0 0 0 0 0 0 0 0 0 0 0 -0 0 0 0 0 0 0 0 0 0 0
0 0 0 0 0 0 0 0 0 0 1 1 1 0 0 0 0 0 0 0 0 0 0 0 0 0 0 0 0 0 -0 0 -0 -0 0 0 0 0 0 0 0 0 0
0 0 0 0 0 0 0 0 0 0 0 0 0 0 0 0 0 0 0 0 0 0 0 0 0 0 0 0 -0 -0 -0 -0 0 0 0 0 0 0 0 0 0 0 0
0 0 0 0 0 -0 0 0 0 0 0 0 0 0 0 0 0 0 0 0 0 0 0 0 0 0 0 0 0 -0 -0 0 0 -0 0 0 0 0 0 0 0 0 0
0 0 0 0 0 0 0 0 1 0 0 0 1 0 0 0 0 0 0 0 0 0 0 0 0 0 0 0 0 0 0 0 0 0 0 0 0 0 0 0 0 0 0
0 0 0 0 0 0 0 0 0 0 0 0 0 0 0 0 0 0 0 0 0 0 0 0 0 0 0 0 0 0 0 0 0 0 0 0 0 0 0 0 0 0 0
0 0 0 0 0 0 0 0 0 0 0 0 0 0 0 0 0 0 0 0 0 0 0 0 0 0 0 0 0 0 0 0 0 0 0 0 0 0 0 0 0 0 0
0 0 0 0 0 0 0 0 0 0 0 0 0 0 0 0 0 0 0 0 0 0 0 0 0 0 0 0 0 0 0 0 0 0 0 0 0 0 0 0 0 0 0
0 0 0 0 0 0 0 0 0 0 0 0 0 0 0 0 0 0 0 0 0 0 0 0 0 0 0 0 0 0 0 0 0 0 0 0 0 0 0 0 0 0 0
0 0 0 0 0 0 0 0 0 0 0 0 0 0 0 0 0 0 0 0 0 0 0 0 0 0 0 0 0 0 0 0 0 0 0 0 0 0 0 0 0 0 0
0 0 0 0 0 0 0 0 0 0 0 0 0 0 0 0 0 0 0 0 0 0 0 0 0 0 0 0 0 0 0 0 0 0 0 0 0 0 0 0 0 0 0
Wind_Speed_500mb
4 16 18 17 13 11 7 1 4 11 9 10 15 23 23 24 19 24 17 17 17 17 14 11 10 10 10 6 6 12 21 27 33 36 39 44 48 47 48 47 49 48 44
20 11 11 13 7 3 4 3 2 8 12 19 23 20 24 27 22 19 19 22 25 23 19 18 17 17 18 11 10 8 9 16 25 30 35 41 47 51 52 51 51 52 49
18 2 10 11 3 2 3 10 5 6 4 13 20 28 27 30 22 28 28 28 30 26 23 18 22 27 23 12 10 11 13 14 19 23 27 33 42 49 54 56 54 54 53
13 9 9 13 14 5 10 17 12 22 15 13 20 27 37 36 36 27 32 25 19 22 21 24 26 26 23 15 16 19 19 14 13 14 17 23 28 39 50 55 56 55 51
2 3 6 9 4 10 3 17 7 7 5 20 9 24 14 20 24 24 20 18 19 15 18 18 21 18 20 26 24 26 26 24 15 15 15 16 22 31 42 53 57 55 53
9 2 9 3 4 10 14 7 4 5 12 19 8 18 14 17 23 22 24 23 18 17 20 18 17 19 20 28 23 18 32 34 19 15 14 13 17 25 33 45 56 60 62
4 3 7 9 3 5 9 18 11 12 13 19 16 4 3 11 2 13 20 19 18 17 17 13 5 13 21 29 23 16 20 28 24 19 20 14 16 18 27 35 47 58 68
3 11 9 9 5 13 6 10 18 20 15 20 19 8 3 7 3 4 10 12 21 21 19 17 12 12 20 24 27 25 31 33 32 28 38 23 18 16 21 30 38 47 55
7 11 3 7 10 13 11 14 23 17 18 16 16 16 8 9 14 6 13 20 24 29 25 25 16 19 18 28 32 29 28 34 29 24 34 30 24 21 22 25 37 43 50
12 12 13 8 11 13 18 20 23 21 19 15 11 10 11 9 26 6 13 24 20 22 24 21 19 15 16 18 25 22 27 27 27 27 33 37 33 21 25 26 33 41 47
16 19 25 23 16 18 18 20 21 22 17 13 11 6 10 10 11 23 24 16 18 21 23 21 18 15 18 15 10 20 22 25 34 39 34 33 33 25 26 28 31 39 46
18 23 37 25 23 21 23 21 20 21 16 16 11 12 13 22 14 21 21 22 26 23 26 22 16 18 13 13 12 19 16 19 22 24 23 19 16 24 26 28 30 37 42
31 33 20 22 23 25 26 27 26 23 23 20 19 20 22 34 17 20 19 22 24 22 26 25 19 18 10 12 14 13 14 14 16 17 16 14 14 17 24 26 28 38 39
36 28 14 22 29 32 33 28 32 31 26 25 27 28 26 25 23 25 18 22 21 20 29 25 21 18 15 11 13 8 14 10 12 14 14 14 14 16 19 24 29 37 41
45 48 41 35 31 33 36 40 36 34 30 34 32 34 28 34 24 17 17 20 23 19 25 25 22 25 20 14 17 14 11 12 10 9 12 15 17 17 19 24 31 37 46
36 39 43 40 39 41 45 49 39 34 39 41 36 38 36 33 25 23 14 16 24 22 22 23 29 25 26 17 13 11 11 12 10 5 9 14 20 22 23 26 31 36 42
34 35 40 46 48 46 37 35 37 37 41 41 40 43 43 39 35 26 14 15 21 17 18 18 21 24 31 20 17 13 13 14 8 5 8 12 19 23 26 27 31 35 39
34 37 31 29 30 32 34 36 41 44 44 40 35 41 44 40 33 31 14 15 17 14 9 10 19 31 31 21 19 13 18 15 10 5 9 10 14 17 27 29 32 35 37
22 26 30 34 37 37 43 44 40 43 44 38 35 36 33 30 26 28 13 11 12 8 6 1 21 32 33 26 21 20 17 14 14 9 9 5 8 19 27 29 32 33 37
33 36 34 37 38 42 44 38 41 50 45 34 37 28 23 31 20 20 14 13 12 9 12 6 23 31 33 25 19 20 18 18 17 14 12 9 6 13 26 32 32 36 40
38 39 34 38 42 44 43 50 48 39 41 31 31 26 18 25 20 16 14 16 13 12 18 16 29 33 39 37 23 19 13 11 16 23 25 27 23 24 26 37 37 41 41
37 41 41 46 52 51 52 46 39 39 41 35 29 30 24 26 20 16 14 15 15 12 18 24 26 32 33 33 24 19 13 12 9 6 16 22 25 32 37 39 41 41 43
44 50 54 45 43 39 38 34 35 38 39 32 31 28 27 24 17 14 17 15 17 15 13 20 22 25 31 27 20 20 14 7 4 7 4 10 18 24 39 44 43 44 46
32 33 31 33 32 28 23 23 30 28 25 22 24 30 27 24 18 17 18 15 14 12 12 22 26 18 13 24 16 14 10 8 10 8 2 4 8 18 27 46 52 51 52
20 22 27 26 22 13 10 19 17 23 24 17 13 15 20 20 14 21 19 16 11 15 18 19 30 25 19 20 22 17 13 9 10 11 7 10 7 17 24 29 52 55 55
15 18 20 16 9 9 13 13 21 17 13 18 19 19 7 16 17 20 16 13 8 12 16 23 23 26 26 24 26 21 13 7 9 12 18 18 17 22 19 33 41 58 58
Wind_Direction_500mb
76 130 107 113 113 155 202 321 213 223 230 262 240 234 225 236 227 221 238 227 211 229 234 254 276 281 274 293 264 229 230 233 236 234 228 220 216 214 210 208 202 199 192
6 167 116 126 97 124 151 84 236 220 283 286 262 250 243 246 249 241 256 241 230 236 241 240 255 241 233 237 247 227 222 222 232 235 238 233 221 215 213 209 205 199 198
35 32 71 74 153 322 194 205 292 194 230 284 269 244 247 244 270 250 248 236 232 242 240 246 268 255 233 219 250 241 239 223 216 223 224 231 230 223 216 211 206 202 198
13 55 46 98 90 230 207 204 238 237 250 315 245 237 242 253 257 256 253 230 239 258 264 276 298 248 238 227 245 228 228 210 191 195 215 226 227 226 221 211 207 202 195
55 212 154 167 119 360 146 202 238 177 9 354 290 216 267 253 247 261 280 266 291 296 300 304 308 260 258 250 251 227 220 210 190 198 179 216 221 222 218 215 206 200 192
162 273 232 247 177 65 73 130 248 9 6 359 360 215 246 263 256 276 273 270 271 270 285 316 332 303 288 283 274 272 235 222 205 211 192 177 206 218 218 214 214 201 191
174 304 252 237 235 9 49 57 23 345 354 17 38 18 214 152 220 258 266 272 261 264 273 268 299 302 286 291 278 252 249 223 211 209 231 225 215 214 217 214 214 209 201
267 277 300 254 279 356 19 26 12 11 11 19 25 34 147 43 13 243 252 264 270 271 253 237 248 267 264 274 270 245 268 210 214 240 231 228 218 228 221 215 212 213 213
339 355 348 283 296 326 343 359 359 1 7 4 9 23 1 357 332 278 270 262 255 251 252 241 245 249 274 271 256 241 236 206 227 218 228 235 239 231 236 215 212 213 209
302 292 313 316 329 326 322 332 342 352 347 350 346 357 29 21 321 265 252 286 262 231 235 240 233 249 288 277 253 229 214 214 204 227 238 242 239 229 235 222 211 210 207
293 288 298 280 291 314 319 325 337 344 343 331 334 300 285 346 304 299 287 265 257 234 239 240 254 272 274 281 215 222 219 222 231 241 239 240 243 228 218 218 209 202 201
263 285 293 254 261 280 303 307 316 320 320 322 291 265 277 340 290 271 276 269 272 250 248 247 251 263 245 248 233 224 197 190 206 221 228 232 234 205 207 212 204 200 195
267 281 285 250 252 280 299 301 291 299 287 304 270 277 265 342 280 274 260 275 250 248 236 238 241 240 219 200 183 205 192 182 199 211 220 236 223 208 204 208 199 198 192
257 263 239 251 267 276 290 294 285 287 283 289 292 281 279 305 317 287 263 268 240 242 234 240 248 237 209 195 222 197 201 184 194 210 210 208 212 202 202 201 200 196 196
251 258 265 267 264 271 288 298 293 283 281 284 285 283 300 285 312 304 268 271 251 248 239 230 221 221 203 207 206 206 189 193 254 251 219 208 210 207 193 191 197 195 197
243 249 254 262 267 275 284 289 285 281 277 279 286 280 289 290 287 300 256 255 259 266 260 233 218 225 204 206 215 200 189 199 208 248 224 193 200 205 192 187 195 195 196
251 257 262 265 270 277 278 285 289 289 283 283 281 287 289 294 293 280 276 247 247 271 279 221 213 211 195 191 194 187 167 165 169 156 156 168 190 195 191 188 192 193 192
260 267 268 273 278 284 284 289 296 295 292 288 286 287 283 286 292 290 256 231 241 261 279 249 216 182 184 171 179 197 184 180 174 174 174 187 186 190 188 187 192 191 190
270 275 281 281 285 297 296 297 303 301 302 300 274 266 284 289 294 295 255 238 228 231 193 278 172 168 174 171 178 189 202 201 192 184 131 127 164 199 192 192 192 188 189
278 279 282 287 296 297 299 303 303 311 308 305 299 263 281 291 285 294 257 242 207 208 194 159 148 164 175 167 181 196 198 218 225 241 242 230 210 195 194 199 194 192 191
264 275 285 290 291 295 298 299 298 304 301 300 297 280 274 284 274 279 250 253 230 204 207 184 160 166 179 187 192 197 186 218 250 253 250 255 240 217 205 203 197 194 191
274 284 290 293 292 295 298 298 296 296 301 296 280 278 270 275 259 276 214 253 255 246 209 200 178 179 190 196 200 216 225 236 248 241 234 241 233 217 210 207 201 196 191
284 290 292 297 296 292 302 289 298 301 303 293 280 274 274 276 245 252 215 236 254 244 228 230 194 185 200 201 214 225 221 224 244 11 185 190 200 209 206 202 201 198 194
292 296 299 302 299 310 302 300 305 316 312 294 294 280 274 276 226 238 221 231 237 218 209 218 216 215 217 200 188 204 227 251 264 268 281 213 211 198 204 201 197 196 195
298 305 312 313 304 318 295 302 326 323 313 316 310 299 283 262 239 210 207 221 205 186 188 187 194 218 218 208 203 214 247 268 258 255 248 226 230 213 205 197 196 194 196
294 327 329 304 308 289 289 299 330 347 7 359 346 334 288 222 211 199 195 212 200 172 184 190 188 189 200 212 215 215 235 257 268 261 223 210 189 168 177 195 194 193 193
Wind_Speed_850mb
4 16 18 17 13 11 7 1 4 11 9 10 15 23 23 24 19 24 17 17 17 17 14 11 10 10 10 6 6 12 21 27 33 36 39 44 48 47 48 47 49 48 44
20 11 11 13 7 3 4 3 2 8 12 19 23 20 24 27 22 19 19 22 25 23 19 18 17 17 18 11 10 8 9 16 25 30 35 41 47 51 52 51 51 52 49
18 2 10 11 3 2 3 10 5 6 4 13 20 28 27 30 22 28 28 28 30 26 23 18 22 27 23 12 10 11 13 14 19 23 27 33 42 49 54 56 54 54 53
13 9 9 13 14 5 10 17 12 22 15 13 20 27 37 36 36 27 32 25 19 22 21 24 26 26 23 15 16 19 19 14 13 14 17 23 28 39 50 55 56 55 51
2 3 6 9 4 10 3 17 7 7 5 20 9 24 14 20 24 24 20 18 19 15 18 18 21 18 20 26 24 26 26 24 15 15 15 16 22 31 42 53 57 55 53
9 2 9 3 4 10 14 7 4 5 12 19 8 18 14 17 23 22 24 23 18 17 20 18 17 19 20 28 23 18 32 34 19 15 14 13 17 25 33 45 56 60 62
4 3 7 9 3 5 9 18 11 12 13 19 16 4 3 11 2 13 20 19 18 17 17 13 5 13 21 29 23 16 20 28 24 19 20 14 16 18 27 35 47 58 68
3 11 9 9 5 13 6 10 18 20 15 20 19 8 3 7 3 4 10 12 21 21 19 17 12 12 20 24 27 25 31 33 32 28 38 23 18 16 21 30 38 47 55
7 11 3 7 10 13 11 14 23 17 18 16 16 16 8 9 14 6 13 20 24 29 25 25 16 19 18 28 32 29 28 34 29 24 34 30 24 21 22 25 37 43 50
12 12 13 8 11 13 18 20 23 21 19 15 11 10 11 9 26 6 13 24 20 22 24 21 19 15 16 18 25 22 27 27 27 27 33 37 33 21 25 26 33 41 47
16 19 25 23 16 18 18 20 21 22 17 13 11 6 10 10 11 23 24 16 18 21 23 21 18 15 18 15 10 20 22 25 34 39 34 33 33 25 26 28 31 39 46
18 23 37 25 23 21 23 21 20 21 16 16 11 12 13 22 14 21 21 22 26 23 26 22 16 18 13 13 12 19 16 19 22 24 23 19 16 24 26 28 30 37 42
31 33 20 22 23 25 26 27 26 23 23 20 19 20 22 34 17 20 19 22 24 22 26 25 19 18 10 12 14 13 14 14 16 17 16 14 14 17 24 26 28 38 39
36 28 14 22 29 32 33 28 32 31 26 25 27 28 26 25 23 25 18 22 21 20 29 25 21 18 15 11 13 8 14 10 12 14 14 14 14 16 19 24 29 37 41
45 48 41 35 31 33 36 40 36 34 30 34 32 34 28 34 24 17 17 20 23 19 25 25 22 25 20 14 17 14 11 12 10 9 12 15 17 17 19 24 31 37 46
36 39 43 40 39 41 45 49 39 34 39 41 36 38 36 33 25 23 14 16 24 22 22 23 29 25 26 17 13 11 11 12 10 5 9 14 20 22 23 26 31 36 42
34 35 40 46 48 46 37 35 37 37 41 41 40 43 43 39 35 26 14 15 21 17 18 18 21 24 31 20 17 13 13 14 8 5 8 12 19 23 26 27 31 35 39
34 37 31 29 30 32 34 36 41 44 44 40 35 41 44 40 33 31 14 15 17 14 9 10 19 31 31 21 19 13 18 15 10 5 9 10 14 17 27 29 32 35 37
22 26 30 34 37 37 43 44 40 43 44 38 35 36 33 30 26 28 13 11 12 8 6 1 21 32 33 26 21 20 17 14 14 9 9 5 8 19 27 29 32 33 37
33 36 34 37 38 42 44 38 41 50 45 34 37 28 23 31 20 20 14 13 12 9 12 6 23 31 33 25 19 20 18 18 17 14 12 9 6 13 26 32 32 36 40
38 39 34 38 42 44 43 50 48 39 41 31 31 26 18 25 20 16 14 16 13 12 18 16 29 33 39 37 23 19 13 11 16 23 25 27 23 24 26 37 37 41 41
37 41 41 46 52 51 52 46 39 39 41 35 29 30 24 26 20 16 14 15 15 12 18 24 26 32 33 33 24 19 13 12 9 6 16 22 25 32 37 39 41 41 43
44 50 54 45 43 39 38 34 35 38 39 32 31 28 27 24 17 14 17 15 17 15 13 20 22 25 31 27 20 20 14 7 4 7 4 10 18 24 39 44 43 44 46
32 33 31 33 32 28 23 23 30 28 25 22 24 30 27 24 18 17 18 15 14 12 12 22 26 18 13 24 16 14 10 8 10 8 2 4 8 18 27 46 52 51 52
20 22 27 26 22 13 10 19 17 23 24 17 13 15 20 20 14 21 19 16 11 15 18 19 30 25 19 20 22 17 13 9 10 11 7 10 7 17 24 29 52 55 55
15 18 20 16 9 9 13 13 21 17 13 18 19 19 7 16 17 20 16 13 8 12 16 23 23 26 26 24 26 21 13 7 9 12 18 18 17 22 19 33 41 58 58
Wind_Direction_850mb
76 130 107 113 113 155 202 321 213 223 230 262 240 234 225 236 227 221 238 227 211 229 234 254 276 281 274 293 264 229 230 233 236 234 228 220 216 214 210 208 202 199 192
6 167 116 126 97 124 151 84 236 220 283 286 262 250 243 246 249 241 256 241 230 236 241 240 255 241 233 237 247 227 222 222 232 235 238 233 221 215 213 209 205 199 198
35 32 71 74 153 322 194 205 292 194 230 284 269 244 247 244 270 250 248 236 232 242 240 246 268 255 233 219 250 241 239 223 216 223 224 231 230 223 216 211 206 202 198
13 55 46 98 90 230 207 204 238 237 250 315 245 237 242 253 257 256 253 230 239 258 264 276 298 248 238 227 245 228 228 210 191 195 215 226 227 226 221 211 207 202 195
55 212 154 167 119 360 146 202 238 177 9 354 290 216 267 253 247 261 280 266 291 296 300 304 308 260 258 250 251 227 220 210 190 198 179 216 221 222 218 215 206 200 192
162 273 232 247 177 65 73 130 248 9 6 359 360 215 246 263 256 276 273 270 271 270 285 316 332 303 288 283 274 272 235 222 205 211 192 177 206 218 218 214 214 201 191
174 304 252 237 235 9 49 57 23 345 354 17 38 18 214 152 220 258 266 272 261 264 273 268 299 302 286 291 278 252 249 223 211 209 231 225 215 214 217 214 214 209 201
267 277 300 254 279 356 19 26 12 11 11 19 25 34 147 43 13 243 252 264 270 271 253 237 248 267 264 274 270 245 268 210 214 240 231 228 218 228 221 215 212 213 213
339 355 348 283 296 326 343 359 359 1 7 4 9 23 1 357 332 278 270 262 255 251 252 241 245 249 274 271 256 241 236 206 227 218 228 235 239 231 236 215 212 213 209
302 292 313 316 329 326 322 332 342 352 347 350 346 357 29 21 321 265 252 286 262 231 235 240 233 249 288 277 253 229 214 214 204 227 238 242 239 229 235 222 211 210 207
293 288 298 280 291 314 319 325 337 344 343 331 334 300 285 346 304 299 287 265 257 234 239 240 254 272 274 281 215 222 219 222 231 241 239 240 243 228 218 218 209 202 201
263 285 293 254 261 280 303 307 316 320 320 322 291 265 277 340 290 271 276 269 272 250 248 247 251 263 245 248 233 224 197 190 206 221 228 232 234 205 207 212 204 200 195
267 281 285 250 252 280 299 301 291 299 287 304 270 277 265 342 280 274 260 275 250 248 236 238 241 240 219 200 183 205 192 182 199 211 220 236 223 208 204 208 199 198 192
257 263 239 251 267 276 290 294 285 287 283 289 292 281 279 305 317 287 263 268 240 242 234 240 248 237 209 195 222 197 201 184 194 210 210 208 212 202 202 201 200 196 196
251 258 265 267 264 271 288 298 293 283 281 284 285 283 300 285 312 304 268 271 251 248 239 230 221 221 203 207 206 206 189 193 254 251 219 208 210 207 193 191 197 195 197
243 249 254 262 267 275 284 289 285 281 277 279 286 280 289 290 287 300 256 255 259 266 260 233 218 225 204 206 215 200 189 199 208 248 224 193 200 205 192 187 195 195 196
251 257 262 265 270 277 278 285 289 289 283 283 281 287 289 294 293 280 276 247 247 271 279 221 213 211 195 191 194 187 167 165 169 156 156 168 190 195 191 188 192 193 192
260 267 268 273 278 284 284 289 296 295 292 288 286 287 283 286 292 290 256 231 241 261 279 249 216 182 184 171 179 197 184 180 174 174 174 187 186 190 188 187 192 191 190
270 275 281 281 285 297 296 297 303 301 302 300 274 266 284 289 294 295 255 238 228 231 193 278 172 168 174 171 178 189 202 201 192 184 131 127 164 199 192 192 192 188 189
278 279 282 287 296 297 299 303 303 311 308 305 299 263 281 291 285 294 257 242 207 208 194 159 148 164 175 167 181 196 198 218 225 241 242 230 210 195 194 199 194 192 191
264 275 285 290 291 295 298 299 298 304 301 300 297 280 274 284 274 279 250 253 230 204 207 184 160 166 179 187 192 197 186 218 250 253 250 255 240 217 205 203 197 194 191
274 284 290 293 292 295 298 298 296 296 301 296 280 278 270 275 259 276 214 253 255 246 209 200 178 179 190 196 200 216 225 236 248 241 234 241 233 217 210 207 201 196 191
284 290 292 297 296 292 302 289 298 301 303 293 280 274 274 276 245 252 215 236 254 244 228 230 194 185 200 201 214 225 221 224 244 11 185 190 200 209 206 202 201 198 194
292 296 299 302 299 310 302 300 305 316 312 294 294 280 274 276 226 238 221 231 237 218 209 218 216 215 217 200 188 204 227 251 264 268 281 213 211 198 204 201 197 196 195
298 305 312 313 304 318 295 302 326 323 313 316 310 299 283 262 239 210 207 221 205 186 188 187 194 218 218 208 203 214 247 268 258 255 248 226 230 213 205 197 196 194 196
294 327 329 304 308 289 289 299 330 347 7 359 346 334 288 222 211 199 195 212 200 172 184 190 188 189 200 212 215 215 235 257 268 261 223 210 189 168 177 195 194 193 193